367P/Catalina (2025)

Japanese version
Home page
Updated on November 30, 2024

---------------------------------------------------------------------

* Profile

* Orbital Elements

Epoch 2025 Jan. 5.0 TT = JDT 2460680.5
T 2025 Jan. 11.55574 TT                                 MPCW
q   2.5279629            (2000.0)            P               Q
n   0.14980240     Peri.  172.63850     -0.62332759     +0.77178997
a   3.5112105      Node    58.71463     -0.72472378     -0.50981407
e   0.2800310      Incl.    8.45886     -0.29366334     -0.38003927
P   6.58
From 123 observations 2011 Feb. 10-2018 Apr. 20, mean residual 0".6.

* Magnitudes Graph

        H = 17.5  G = 0.15

---------------------------------------------------------------------

The orbital elements are published on M.P.E.C. 2018-U70.
The magnitudes graphs are made with Comet for Windows.

---------------------------------------------------------------------

Copyright(C) Seiichi Yoshida (comet@aerith.net). All rights reserved.